Change the Weather History Date:

Monday, April 8, 2013

  Actual Average Record
Temperature  
Mean Temperature 45 °F 47 °F  
Max Temperature 54 °F 57 °F 71 °F (1996)
Min Temperature 35 °F 37 °F 23 °F (1975)
Degree Days  
Heating Degree Days 20 18  
Month to date heating degree days 121 145  
Since 1 July heating degree days 4417 4503  
Cooling Degree Days 0 0  
Month to date cooling degree days 0 0  
Year to date cooling degree days 0 0  
Moisture  
Dew Point 40 °F    
Average Humidity 80    
Maximum Humidity 100    
Minimum Humidity 59    
Precipitation  
Precipitation T in 0.13 in 1.17 in (1993)
Month to date precipitation 3.04 1.11  
Year to date precipitation 14.87 19.51  
Sea Level Pressure  
Sea Level Pressure 30.13 in    
Wind  
Wind Speed 7 mph (SSW)    
Max Wind Speed 14 mph    
Max Gust Speed 17 mph    
Visibility 9 miles    
Events      
T = Trace of Precipitation, MM = Missing Value Source: NWS Daily Summary

Daily Weather History Graph

Daily Weather History Graph

Search for Another Location

Airport or City:

Trip Planner

Search our weather history database for the weather conditions in past years. The results will help you decide how hot, cold, wet, or windy it might be!

Date:

Astronomy

Apr. 08, 2013 Rise Set
Actual Time 6:36 AM PDT 7:51 PM PDT
Civil Twilight 6:05 AM PDT 8:22 PM PDT
Nautical Twilight 5:27 AM PDT 9:00 PM PDT
Astronomical Twilight 4:47 AM PDT 9:40 PM PDT
Moon 5:34 AM PDT (4/8) 6:27 PM PDT (4/8)
Length of Visible Light 14h 17m
Length of Day
13h 14m
Waning Crescent, 3% of the Moon is Illuminated
Apr 8
Waning Crescent
Apr 10
New
Apr 18
First Quarter
Apr 25
Full
May 2
Last Quarter

Hourly Weather History & Observations

Time (PDT) Temp. Windchill Dew Point Humidity Pressure Visibility Wind Dir Wind Speed Gust Speed Precip Events Conditions
12:54 AM 37.0 °F - 35.1 °F 93% 29.94 in 10.0 mi Calm Calm - N/A   Clear
1:54 AM 36.0 °F 31.1 °F 35.1 °F 97% 29.96 in 10.0 mi South 5.8 mph - N/A   Partly Cloudy
2:54 AM 37.0 °F 32.4 °F 36.0 °F 96% 29.97 in 10.0 mi SSW 5.8 mph - N/A   Clear
3:54 AM 36.0 °F 30.3 °F 35.1 °F 97% 29.99 in 10.0 mi South 6.9 mph - N/A   Partly Cloudy
4:54 AM 39.9 °F 35.1 °F 37.9 °F 93% 30.01 in 10.0 mi SSW 6.9 mph - N/A   Scattered Clouds
5:54 AM 41.0 °F 35.8 °F 39.0 °F 93% 30.03 in 10.0 mi SSW 8.1 mph - N/A   Mostly Cloudy
6:54 AM 42.1 °F 37.1 °F 39.9 °F 92% 30.04 in 8.0 mi South 8.1 mph - N/A   Overcast
7:49 AM 44.6 °F 41.4 °F 41.0 °F 87% 30.07 in 8.0 mi South 5.8 mph - N/A   Overcast
7:54 AM 44.1 °F 40.1 °F 41.0 °F 89% 30.07 in 8.0 mi South 6.9 mph - N/A   Overcast
8:54 AM 46.0 °F 41.0 °F 42.1 °F 86% 30.09 in 8.0 mi SSW 10.4 mph - N/A   Overcast
9:54 AM 46.9 °F - 43.0 °F 86% 30.11 in 8.0 mi SSW 9.2 mph - N/A   Overcast
10:54 AM 48.0 °F - 43.0 °F 83% 30.13 in 8.0 mi South 8.1 mph - N/A   Overcast
11:54 AM 50.0 °F - 43.0 °F 77% 30.15 in 8.0 mi South 5.8 mph - N/A   Overcast
12:54 PM 51.1 °F - 42.1 °F 71% 30.16 in 8.0 mi SSW 9.2 mph - N/A   Overcast
1:54 PM 51.1 °F - 41.0 °F 68% 30.17 in 8.0 mi SW 9.2 mph - N/A   Overcast
2:54 PM 52.0 °F - 42.1 °F 69% 30.18 in 10.0 mi WSW 6.9 mph - 0.00 in   Overcast
3:54 PM 53.1 °F - 41.0 °F 64% 30.18 in 10.0 mi SW 10.4 mph - N/A   Overcast
4:54 PM 53.1 °F - 39.9 °F 61% 30.19 in 10.0 mi WSW 9.2 mph - N/A   Mostly Cloudy
5:54 PM 52.0 °F - 41.0 °F 66% 30.21 in 10.0 mi SW 10.4 mph - N/A   Mostly Cloudy
6:54 PM 51.1 °F - 41.0 °F 68% 30.23 in 10.0 mi SSW 6.9 mph - N/A   Overcast
7:54 PM 48.9 °F - 42.1 °F 77% 30.23 in 9.0 mi SW 8.1 mph - N/A   Overcast
8:54 PM 46.0 °F 43.9 °F 41.0 °F 83% 30.25 in 10.0 mi SSW 4.6 mph - N/A   Clear
9:54 PM 43.0 °F 39.5 °F 39.9 °F 89% 30.27 in 10.0 mi South 5.8 mph - N/A   Clear
10:54 PM 41.0 °F 37.1 °F 39.0 °F 93% 30.28 in 9.0 mi South 5.8 mph - N/A   Clear
11:54 PM 41.0 °F - 37.9 °F 89% 30.30 in 9.0 mi Calm Calm - N/A   Clear